Tracking 33159 objects as of 7-Feb-2026
HD Live streaming from Space Station
objects crossing your sky now

STARLINK-1227

Track STARLINK-1227 now!
10-day predictions
STARLINK-1227 is classified as:


NORAD ID: 45230
Int'l Code: 2020-012BE
Perigee: 479.0 km
Apogee: 480.7 km
Inclination: 53.2 °
Period: 94.1 minutes
Semi major axis: 6850 km
RCS: Unknown
Launch date: February 17, 2020
Source: United States (US)
Launch site: AIR FORCE EASTERN TEST RANGE (AFETR)
Your satellite tracking list
Your tracking list is empty




NASA's NSSDC Master Catalog

Two Line Element Set (TLE):
1 45230U 20012BE  26037.56868704  .00003724  00000-0  13437-3 0  9998
2 45230  53.1596 143.6061 0001308  75.2094 284.9052 15.31038785330765
Source of the keplerian elements: AFSPC